Location: McFarlands Corners
(41.4117°N, 81.3382°W)
Time: 05:40:06
(UTC+00:00)

A-11 Canister half - Pass Details

Date: 21 February 2026
Orbit: 1524 x 1683 km, 47.3° (Epoch: 14 March)

Event Time Altitude Azimuth Distance (km) Brightness Sun altitude
Rises 00:19:23 0° 281° (W) 4,697 13.2 -14.5°
Reaches altitude 10° 00:22:31 10° 285° (WNW) 3,703 12.2 -15.1°
Maximum altitude 00:31:44 62° 5° (N) 1,688 9.1 -16.9°
Enters shadow 00:37:50 24° 79° (E) 2,768 9.7 -18.0°
